Tracking 35274 objects as of 11-Sep-2026
HD Live streaming from Space Station
objects crossing your sky now

STARLINK-30269

Track STARLINK-30269 now!
10-day predictions
STARLINK-30269 is classified as:


NORAD ID: 57528
Int'l Code: 2023-115H
Launch date: August 8, 2023
Source: United States (US)
Launch site: AIR FORCE WESTERN TEST RANGE (AFWTR)
Your satellite tracking list
Your tracking list is empty




NASA's NSSDC Master Catalog

Two Line Element Set (TLE):
1 57528U 23115H   26254.43516258 -.00000196  00000-0  24124-5 0  9997
2 57528  43.0055  33.0557 0001276 269.8714  90.1991 15.27575522170752
Source of the keplerian elements: AFSPC